Flag for U.S.A. Weather past 2 weeks in Inglewood, California, U.S.A.

Now
60 °F

Partly sunny.


Feels Like: 60 °F
Forecast: 54 / 66 °F
Wind: 6 mph from West

Location: Hawthorne Municipal Airport

Current Time: Apr 25, 2015 at 8:39:38 AM

Latest Report: Apr 25, 2015 at 7:53 AM


Visibility: 10 mi

Pressure: 29.99 "Hg

Humidity: 75%

Dew point: 52 °F

Location of InglewoodLocation

Historic Weather in Inglewood — Graph

°F

Inglewood temperature yesterday

Maximum temperature yesterday: 65 °F (at 1:53 PM)
Minimum temperature yesterday: 60 °F (at 5:53 AM)
Average temperature yesterday: 62 °F

Past Weeks' High & Low Weather Summary

 TemperatureHumidityPressure
High81 °F (Apr 16, 1:53 PM)87% (Apr 19, 1:53 AM)30.10 "Hg (Apr 19, 1:53 AM)
Low56 °F (Apr 10, 6:53 AM)7% (Apr 16, 11:53 AM)29.84 "Hg (Apr 20, 5:53 PM)
Average64 °F60%29.96 "Hg
* Reported Apr 10 6:53 AM — Apr 25 6:53 AM, Inglewood, Weather by CustomWeather, © 2015

Note: Actual official high and low records may vary slightly from our data, if they occured in-between our weather recording intervals... More about our weather records

Advertising

Inglewood weather history for previous 24 hours

 ConditionsComfort  
Time TempWeatherWind HumidityBarometerVisibility
6:53 AM
Sat, Apr 25
59 °FClear.No wind78%29.98 "Hg10 mi
5:53 AM59 °FPassing clouds.No wind78%29.98 "Hg10 mi
4:53 AM59 °FPassing clouds.5 mph75%29.98 "Hg10 mi
3:53 AM58 °FPassing clouds.No wind75%29.98 "Hg10 mi
2:53 AM59 °FPassing clouds.No wind72%29.99 "Hg10 mi
1:53 AM59 °FClear.No wind72%29.99 "Hg10 mi
12:53 AM59 °FClear.No wind72%30.00 "Hg10 mi
11:53 PM
Fri, Apr 24
60 °FClear.3 mph72%30.00 "Hg10 mi
10:53 PM61 °FOvercast.5 mph75%30.01 "Hg10 mi
9:53 PM61 °FOvercast.5 mph75%30.02 "Hg10 mi
8:53 PM62 °FOvercast.3 mph67%30.01 "Hg10 mi
7:53 PM62 °FOvercast.7 mph65%29.99 "Hg10 mi
7:01 PM62 °FBroken clouds.7 mph65%29.99 "Hg10 mi
5:53 PM64 °FCloudy.8 mph63%29.99 "Hg10 mi
3:53 PM64 °FOvercast.9 mph63%29.98 "Hg10 mi
2:53 PM64 °FOvercast.10 mph63%29.99 "Hg10 mi
1:53 PM65 °FOvercast.9 mph61%30.00 "Hg10 mi
12:53 PM63 °FMore clouds than sun.5 mph65%30.01 "Hg10 mi
11:53 AM63 °FOvercast.7 mph68%30.02 "Hg10 mi
10:53 AM61 °FOvercast.7 mph75%30.03 "Hg10 mi
9:53 AM61 °FOvercast.6 mph72%30.01 "Hg10 mi
8:53 AM61 °FOvercast.6 mph72%29.99 "Hg10 mi
Weather by CustomWeather, © 2015

See weather overviewHow to use our weather pages